User: anonymous   Login
Location: Newark
(46.7636°N, 1.8358°W)
Time: 14:02:50
(UTC+00:00)
Language:

Tiros 1 despin weight - Orbit

View from above orbital plane
View from above orbital plane
View from above satellite
View from above satellite

Ground track
Ground track

The orbit data is extracted from the following two-line orbital elements,

1   115U 60002D   19292.60110033 +.00000078 +00000-0 +36393-4 0  9995
2   115 048.1682 357.1253 0035232 262.8963 096.7943 14.83493091155905
Epoch (UTC): 19 October 2019 14:25:35
Eccentricity: 0.0035232
inclination: 48.1682°
perigee height: 593 km
apogee height: 643 km
right ascension of ascending node: 357.1253°
argument of perigee: 262.8963°
revolutions per day: 14.83493091
mean anomaly at epoch: 96.7943°
orbit number at epoch: 15590

The dashed part of the orbit path shows where the satellite is in the earth's shadow,  

DLR